パンスターズ彗星

C/2014 R3 ( PanSTARRS )

English version
Home page
Updated on August 6, 2017

---------------------------------------------------------------------

・ プロフィール

発見日 2014年9月6日
発見光度 20.1等
発見者 Pan-STARRS 1 telescope (Haleakala)

・ 写真集

・ 軌道要素

Epoch 2016 July 31.0 TT = JDT 2457600.5
T 2016 Aug. 7.88049 TT                                  MPCW
q   7.2753991            (2000.0)            P               Q
z  +0.0000178      Peri.  113.39999     -0.36315070     -0.82312365
 +/-0.0000004      Node   334.11211     -0.21700404     +0.53038798
e   0.9998708      Incl.   90.83746     +0.90610751     -0.20286952
From 395 observations 2014 Sept. 6-2017 Mar. 5, mean residual 0".4.

・ 光度変化

        m1 = -22 + 5 logΔ + 40 log r(t - 50)

---------------------------------------------------------------------

軌道要素はM.P.E.C. 2017-E59に掲載されたものです。
光度グラフはComet for Windowsで作成したものです。

---------------------------------------------------------------------

Copyright(C) Seiichi Yoshida (comet@aerith.net). All rights reserved.